TimeCDT,TemperatureF,Dew PointF,Humidity,Sea Level PressureIn,VisibilityMPH,Wind Direction,Wind SpeedMPH,Gust SpeedMPH,PrecipitationIn,Events,Conditions,WindDirDegrees,DateUTC
12:15 AM,57.2,50.0,77,29.88,10.0,SE,6.9,-,N/A,,Clear,130,2013-09-26 05:15:00
12:35 AM,55.4,50.0,82,29.88,10.0,ESE,6.9,-,N/A,,Clear,120,2013-09-26 05:35:00
12:55 AM,55.4,50.0,82,29.89,10.0,SE,6.9,-,N/A,,Clear,130,2013-09-26 05:55:00
1:15 AM,57.2,51.8,82,29.88,10.0,SE,8.1,-,N/A,,Clear,140,2013-09-26 06:15:00
1:35 AM,57.2,50.0,77,29.89,10.0,SE,8.1,-,N/A,,Clear,140,2013-09-26 06:35:00
1:55 AM,57.2,51.8,82,29.89,10.0,SE,8.1,-,N/A,,Clear,140,2013-09-26 06:55:00
2:15 AM,57.2,51.8,82,29.88,10.0,SE,10.4,-,N/A,,Clear,140,2013-09-26 07:15:00
2:35 AM,57.2,51.8,82,29.88,10.0,SE,12.7,-,N/A,,Clear,140,2013-09-26 07:35:00
2:55 AM,57.2,50.0,77,29.87,10.0,SE,12.7,-,N/A,,Clear,140,2013-09-26 07:55:00
3:15 AM,59.0,50.0,72,29.87,10.0,SE,12.7,-,N/A,,Clear,140,2013-09-26 08:15:00
3:35 AM,59.0,50.0,72,29.86,10.0,SE,13.8,19.6,N/A,,Clear,140,2013-09-26 08:35:00
3:55 AM,59.0,48.2,67,29.86,10.0,SE,15.0,-,N/A,,Clear,140,2013-09-26 08:55:00
4:15 AM,59.0,48.2,67,29.86,10.0,SE,12.7,-,N/A,,Clear,140,2013-09-26 09:15:00
4:35 AM,59.0,50.0,72,29.86,10.0,SSE,12.7,-,N/A,,Clear,150,2013-09-26 09:35:00
4:55 AM,59.0,50.0,72,29.86,10.0,SE,12.7,-,N/A,,Clear,140,2013-09-26 09:55:00
5:15 AM,57.2,50.0,77,29.86,10.0,SE,13.8,-,N/A,,Clear,130,2013-09-26 10:15:00
5:35 AM,57.2,50.0,77,29.86,10.0,SE,10.4,-,N/A,,Clear,130,2013-09-26 10:35:00
5:55 AM,57.2,50.0,77,29.86,10.0,SE,13.8,-,N/A,,Clear,140,2013-09-26 10:55:00
6:15 AM,57.2,50.0,77,29.86,10.0,SE,15.0,-,N/A,,Clear,140,2013-09-26 11:15:00
6:35 AM,57.2,50.0,77,29.86,10.0,SE,13.8,-,N/A,,Clear,140,2013-09-26 11:35:00
6:55 AM,57.2,50.0,77,29.87,10.0,SE,15.0,-,N/A,,Clear,140,2013-09-26 11:55:00
7:15 AM,55.4,51.8,88,29.87,10.0,SE,15.0,-,N/A,,Clear,140,2013-09-26 12:15:00
7:35 AM,57.2,51.8,82,29.88,10.0,SSE,17.3,-,N/A,,Clear,150,2013-09-26 12:35:00
7:55 AM,57.2,51.8,82,29.88,10.0,SE,17.3,21.9,N/A,,Clear,140,2013-09-26 12:55:00
8:15 AM,57.2,51.8,82,29.88,10.0,SSE,16.1,23.0,N/A,,Clear,150,2013-09-26 13:15:00
8:35 AM,60.8,51.8,72,29.89,10.0,SE,16.1,23.0,N/A,,Clear,140,2013-09-26 13:35:00
8:55 AM,60.8,53.6,77,29.88,10.0,SSE,17.3,24.2,N/A,,Clear,150,2013-09-26 13:55:00
9:15 AM,62.6,53.6,72,29.88,10.0,SSE,20.7,-,N/A,,Clear,150,2013-09-26 14:15:00
9:35 AM,64.4,53.6,68,29.88,10.0,SSE,19.6,27.6,N/A,,Clear,150,2013-09-26 14:35:00
9:55 AM,66.2,53.6,64,29.88,10.0,SSE,19.6,25.3,N/A,,Clear,150,2013-09-26 14:55:00
10:15 AM,66.2,55.4,68,29.88,10.0,SSE,23.0,27.6,N/A,,Clear,150,2013-09-26 15:15:00
10:35 AM,69.8,55.4,60,29.88,10.0,SSE,18.4,28.8,N/A,,Clear,150,2013-09-26 15:35:00
10:55 AM,71.6,57.2,60,29.88,10.0,SSE,17.3,28.8,N/A,,Clear,150,2013-09-26 15:55:00
11:15 AM,71.6,55.4,57,29.87,10.0,SSE,24.2,33.4,N/A,,Clear,160,2013-09-26 16:15:00
11:35 AM,73.4,55.4,53,29.87,10.0,SSE,21.9,-,N/A,,Clear,160,2013-09-26 16:35:00
11:55 AM,73.4,55.4,53,29.86,10.0,SSE,25.3,34.5,N/A,,Clear,160,2013-09-26 16:55:00
12:15 PM,75.2,57.2,53,29.85,10.0,SSE,23.0,31.1,N/A,,Clear,160,2013-09-26 17:15:00
12:35 PM,77.0,55.4,47,29.85,10.0,SSE,24.2,28.8,N/A,,Clear,150,2013-09-26 17:35:00
12:55 PM,78.8,55.4,44,29.85,10.0,SSE,23.0,29.9,N/A,,Clear,160,2013-09-26 17:55:00
1:15 PM,78.8,55.4,44,29.84,10.0,SSE,25.3,31.1,N/A,,Clear,150,2013-09-26 18:15:00
1:35 PM,80.6,55.4,42,29.84,10.0,SSE,25.3,31.1,N/A,,Clear,160,2013-09-26 18:35:00
1:55 PM,80.6,55.4,42,29.83,10.0,SSE,23.0,31.1,N/A,,Clear,150,2013-09-26 18:55:00
2:15 PM,82.4,55.4,39,29.83,10.0,SSE,23.0,28.8,N/A,,Clear,160,2013-09-26 19:15:00
2:35 PM,82.4,55.4,39,29.83,10.0,SSE,18.4,23.0,N/A,,Clear,150,2013-09-26 19:35:00
2:55 PM,82.4,55.4,39,29.82,10.0,SSE,21.9,27.6,N/A,,Clear,160,2013-09-26 19:55:00
3:15 PM,82.4,55.4,39,29.82,10.0,SSE,20.7,29.9,N/A,,Clear,160,2013-09-26 20:15:00
3:35 PM,82.4,55.4,39,29.81,10.0,SSE,19.6,31.1,N/A,,Clear,160,2013-09-26 20:35:00
3:55 PM,84.2,53.6,35,29.81,10.0,SSE,23.0,28.8,N/A,,Clear,150,2013-09-26 20:55:00
4:15 PM,84.2,53.6,35,29.81,10.0,SSE,24.2,28.8,N/A,,Clear,150,2013-09-26 21:15:00
4:35 PM,84.2,55.4,37,29.81,10.0,SSE,24.2,31.1,N/A,,Clear,150,2013-09-26 21:35:00
4:55 PM,82.4,55.4,39,29.81,10.0,SSE,17.3,29.9,N/A,,Clear,150,2013-09-26 21:55:00
5:15 PM,82.4,55.4,39,29.81,10.0,SSE,23.0,28.8,N/A,,Clear,150,2013-09-26 22:15:00
5:35 PM,82.4,53.6,37,29.81,10.0,SSE,18.4,28.8,N/A,,Clear,160,2013-09-26 22:35:00
5:55 PM,82.4,55.4,39,29.81,10.0,SSE,19.6,27.6,N/A,,Clear,150,2013-09-26 22:55:00
6:15 PM,82.4,53.6,37,29.81,10.0,SSE,20.7,31.1,N/A,,Clear,150,2013-09-26 23:15:00
6:35 PM,80.6,55.4,42,29.81,10.0,SSE,17.3,-,N/A,,Clear,150,2013-09-26 23:35:00
6:55 PM,78.8,55.4,44,29.82,10.0,SSE,16.1,-,N/A,,Clear,150,2013-09-26 23:55:00
7:15 PM,78.8,55.4,44,29.82,10.0,SE,13.8,-,N/A,,Clear,140,2013-09-27 00:15:00
7:35 PM,77.0,55.4,47,29.82,10.0,SSE,15.0,-,N/A,,Clear,150,2013-09-27 00:35:00
7:55 PM,77.0,55.4,47,29.83,10.0,SSE,16.1,21.9,N/A,,Clear,150,2013-09-27 00:55:00
8:15 PM,75.2,55.4,50,29.83,10.0,SSE,17.3,-,N/A,,Clear,150,2013-09-27 01:15:00
8:35 PM,75.2,55.4,50,29.83,10.0,SSE,18.4,21.9,N/A,,Clear,150,2013-09-27 01:35:00
8:55 PM,75.2,55.4,50,29.84,10.0,SSE,17.3,-,N/A,,Clear,150,2013-09-27 01:55:00
9:15 PM,73.4,55.4,53,29.85,10.0,SSE,16.1,-,N/A,,Clear,150,2013-09-27 02:15:00
9:35 PM,73.4,55.4,53,29.85,10.0,SSE,17.3,-,N/A,,Clear,150,2013-09-27 02:35:00
9:55 PM,73.4,55.4,53,29.86,10.0,SSE,15.0,-,N/A,,Clear,160,2013-09-27 02:55:00
10:15 PM,71.6,55.4,57,29.87,10.0,SSE,17.3,-,N/A,,Clear,150,2013-09-27 03:15:00
10:35 PM,71.6,55.4,57,29.88,10.0,SSE,13.8,-,N/A,,Clear,160,2013-09-27 03:35:00
10:55 PM,69.8,57.2,64,29.89,10.0,SSE,12.7,-,N/A,,Clear,150,2013-09-27 03:55:00
11:15 PM,69.8,57.2,64,29.89,10.0,SSE,12.7,-,N/A,,Clear,150,2013-09-27 04:15:00
11:35 PM,69.8,57.2,64,29.89,10.0,SSE,12.7,-,N/A,,Clear,150,2013-09-27 04:35:00
11:55 PM,69.8,57.2,64,29.89,10.0,SSE,13.8,-,N/A,,Clear,150,2013-09-27 04:55:00